Tracking 21611 objects as of 22-Oct-2020
HD Live streaming from Space Station
objects crossing your sky now

COSMOS 2408

Track COSMOS 2408 now!
10-day predictions
COSMOS 2408 is classified as:


NORAD ID: 28419
Int'l Code: 2004-037A
Perigee: 1,477.0 km
Apogee: 1,503.0 km
Inclination: 82.5 °
Period: 115.6 minutes
Semi major axis: 7860 km
RCS: 0.961 m2 (medium)
Launch date: September 23, 2004
Source: Commonwealth of Independent States (former USSR) (CIS)
Launch site: PLESETSK MISSILE AND SPACE COMPLEX (PKMTR)

Store-dump communications for Russian government and military.
aabbcc
Your satellite tracking list
Your tracking list is empty




NASA's NSSDC Master Catalog

Two Line Element Set (TLE):
1 28419U 04037A   20295.73359674  .00000034  00000-0  16722-3 0  9998
2 28419  82.4881 179.0473 0016558 111.0988 249.1870 12.45622177731044
Source of the keplerian elements: AFSPC